sat.trackr.live / text

‹ back to catalog

STARLINK-5475

NORAD 55661 · 2023-021AK

PAYLOAD ACTIVE UNKNOWN

§ Identity

Operator
Country
US
Launch date
2023-02-17
Launch site
AFWTR
Launch vehicle
Mass (kg)
RCS (m²)

Purposes: comms

External: N2YO · Heavens-Above · Gunter

§ Orbital elements

Epoch: 2026-09-20T22:00:03.000096Z

Period
95.57 min
Inclination
69.9997°
Eccentricity
0.0005097
Mean motion
15.06733370 rev/d
Perigee alt
542.7 km
Apogee alt
549.7 km
Semi-major
6,924.3 km
B*
6.8038e-4
RAAN
32.1571°
Arg perigee
261.4327°
Mean anomaly
303.0422°
Rev number
571

§ Raw data

STARLINK-54751 55661U 23021AK  26263.91670139  .00010051  00000+0  68038-3 0  99902 55661  69.9997  32.1571 0005097 261.4327 303.0422 15.06733370  5711

JSON: /api/v1/satellites/55661 · /tle

For live sub-satellite position, see the globe view (requires WebGL).

§ Visibility from observer

Set your observer location to see the next 7 days of passes ≥ 10°. The values pass through the URL so the page stays shareable.

No JS? Fill the form by hand. The geolocation button needs JavaScript.